Weather History for Boone, IA

Change the Weather History Date:

Tuesday, December 4, 2012

  Actual Average Record
Temperature  
Mean Temperature 44 °F -  
Max Temperature 58 °F 34 °F 66 °F (1998)
Min Temperature 30 °F 15 °F -3 °F (1991)
Degree Days  
Heating Degree Days 21    
Moisture  
Dew Point 25 °F    
Average Humidity 51    
Maximum Humidity 67    
Minimum Humidity 25    
Precipitation  
Precipitation 0.00 in - - ()
Sea Level Pressure  
Sea Level Pressure 30.20 in    
Wind  
Wind Speed 8 mph (NW)    
Max Wind Speed 13 mph    
Max Gust Speed 18 mph    
Visibility 10 miles    
Events      
Averages and records for this station are not official NWS values.
T = Trace of Precipitation, MM = Missing Value Source: NWS Daily Summary

Daily Weather History Graph

Daily Weather History Graph

Search for Another Location

Airport:

Trip Planner

Search our weather history database for the weather conditions in past years. The results will help you decide how hot, cold, wet, or windy it might be!

Date:

Astronomy

Dec. 04, 2012 Rise Set
Actual Time 7:27 AM CST 4:43 PM CST
Civil Twilight 6:56 AM CST 5:15 PM CST
Nautical Twilight 6:21 AM CST 5:50 PM CST
Astronomical Twilight 5:47 AM CST 6:24 PM CST
Moon 10:36 PM CST (12/4) 11:18 AM CST (12/4)
Length of Visible Light 10h 19m
Length of Day
9h 16m
Waning Gibbous, 69% of the Moon is Illuminated
Dec 4
Waning Gibbous
Dec 6
Last Quarter
Dec 13
New
Dec 19
First Quarter
Dec 28
Full

Hourly Weather History & Observations

Time (CST) Temp. Windchill Dew Point Humidity Pressure Visibility Wind Dir Wind Speed Gust Speed Precip Events Conditions
12:15 AM 42.4 °F 38.8 °F 28.8 °F 58% 30.06 in 10.0 mi West 5.8 mph - N/A   Clear
12:35 AM 42.3 °F 37.9 °F 27.9 °F 57% 30.06 in 10.0 mi West 6.9 mph - N/A   Clear
12:55 AM 41.9 °F 37.5 °F 27.5 °F 57% 30.06 in 10.0 mi West 6.9 mph - N/A   Clear
1:15 AM 41.2 °F 36.6 °F 26.8 °F 57% 30.06 in 10.0 mi West 6.9 mph - N/A   Clear
1:35 AM 41.0 °F 36.4 °F 26.4 °F 56% 30.06 in 10.0 mi WNW 6.9 mph - N/A   Clear
1:55 AM 41.5 °F 36.4 °F 25.7 °F 53% 30.06 in 10.0 mi WNW 8.1 mph - N/A   Clear
2:15 AM 42.1 °F 36.6 °F 25.7 °F 52% 30.07 in 10.0 mi WNW 9.2 mph - N/A   Clear
2:35 AM 41.4 °F 36.2 °F 25.7 °F 54% 30.07 in 10.0 mi WNW 8.1 mph - N/A   Clear
2:55 AM 42.3 °F 36.8 °F 25.3 °F 51% 30.07 in 10.0 mi WNW 9.2 mph - N/A   Clear
3:15 AM 42.3 °F 36.8 °F 25.2 °F 51% 30.08 in 10.0 mi WNW 9.2 mph - N/A   Clear
3:35 AM 42.1 °F 36.6 °F 25.2 °F 51% 30.08 in 10.0 mi WNW 9.2 mph - N/A   Clear
3:55 AM 42.6 °F 37.8 °F 24.8 °F 49% 30.08 in 10.0 mi WNW 8.1 mph - N/A   Clear
4:15 AM 41.9 °F 36.3 °F 25.3 °F 52% 30.08 in 10.0 mi West 9.2 mph - N/A   Clear
4:35 AM 41.9 °F 36.9 °F 24.8 °F 51% 30.10 in 10.0 mi West 8.1 mph - N/A   Clear
4:55 AM 38.5 °F 34.1 °F 25.3 °F 59% 30.11 in 10.0 mi WSW 5.8 mph - N/A   Clear
5:15 AM 37.2 °F 31.2 °F 25.5 °F 63% 30.11 in 10.0 mi WSW 8.1 mph - N/A   Clear
5:35 AM 39.0 °F 33.4 °F 25.3 °F 58% 30.12 in 10.0 mi West 8.1 mph - N/A   Clear
5:55 AM 37.4 °F 31.4 °F 25.3 °F 62% 30.13 in 10.0 mi WSW 8.1 mph - N/A   Clear
6:15 AM 36.5 °F 31.0 °F 25.3 °F 64% 30.14 in 10.0 mi WSW 6.9 mph - N/A   Clear
6:35 AM 36.3 °F 30.8 °F 25.3 °F 64% 30.15 in 10.0 mi WSW 6.9 mph - N/A   Clear
6:55 AM 35.8 °F 30.1 °F 25.3 °F 66% 30.15 in 10.0 mi SW 6.9 mph - N/A   Clear
7:15 AM 35.6 °F 29.9 °F 25.5 °F 67% 30.16 in 10.0 mi SW 6.9 mph - N/A   Clear
7:35 AM 36.0 °F 30.3 °F 25.5 °F 66% 30.16 in 10.0 mi SW 6.9 mph - N/A   Clear
7:55 AM 36.1 °F 30.6 °F 25.7 °F 66% 30.17 in 10.0 mi SW 6.9 mph - N/A   Clear
8:15 AM 37.4 °F 32.1 °F 26.1 °F 64% 30.18 in 10.0 mi West 6.9 mph - N/A   Clear
8:55 AM 42.4 °F 37.5 °F 25.9 °F 52% 30.19 in 10.0 mi West 8.1 mph - N/A   Clear
9:15 AM 44.6 °F 39.2 °F 25.3 °F 47% 30.19 in 10.0 mi West 10.4 mph - N/A   Clear
9:35 AM 46.0 °F 40.2 °F 24.4 °F 43% 30.21 in 10.0 mi WNW 12.7 mph 17.3 mph N/A   Clear
9:55 AM 46.8 °F - 25.0 °F 43% 30.21 in 10.0 mi WNW 10.4 mph 16.1 mph N/A   Clear
10:15 AM 48.2 °F - 25.2 °F 41% 30.21 in 10.0 mi West 8.1 mph - N/A   Clear
10:35 AM 49.6 °F - 25.2 °F 38% 30.21 in 10.0 mi WNW 8.1 mph - N/A   Clear
10:55 AM 51.1 °F - 25.3 °F 37% 30.21 in 10.0 mi WNW 8.1 mph - N/A   Clear
11:15 AM 52.9 °F - 24.8 °F 34% 30.21 in 10.0 mi West 9.2 mph - N/A   Clear
11:35 AM 54.0 °F - 24.1 °F 31% 30.20 in 10.0 mi West 6.9 mph - N/A   Clear
11:55 AM 55.4 °F - 23.5 °F 29% 30.20 in 10.0 mi West 9.2 mph - N/A   Clear
12:15 PM 56.7 °F - 23.0 °F 27% 30.19 in 10.0 mi West 10.4 mph - N/A   Clear
12:35 PM 57.2 °F - 22.1 °F 26% 30.20 in 10.0 mi WNW 9.2 mph - N/A   Clear
12:55 PM 57.9 °F - 22.8 °F 26% 30.20 in 10.0 mi WNW 11.5 mph - N/A   Clear
1:15 PM 58.1 °F - 23.0 °F 26% 30.20 in 10.0 mi WNW 11.5 mph - N/A   Clear
1:35 PM 58.1 °F - 22.1 °F 25% 30.20 in 10.0 mi WNW 10.4 mph 18.4 mph N/A   Clear
1:55 PM 57.9 °F - 23.2 °F 26% 30.21 in 10.0 mi WNW 8.1 mph - N/A   Clear
2:15 PM 57.6 °F - 23.5 °F 27% 30.21 in 10.0 mi NW 8.1 mph - N/A   Clear
2:35 PM 57.0 °F - 23.0 °F 27% 30.21 in 10.0 mi WNW 8.1 mph - N/A   Clear
2:55 PM 56.7 °F - 23.2 °F 27% 30.21 in 10.0 mi NW 8.1 mph - N/A   Clear
3:15 PM 55.8 °F - 23.5 °F 29% 30.21 in 10.0 mi NW 9.2 mph - N/A   Clear
3:35 PM 54.9 °F - 23.4 °F 30% 30.22 in 10.0 mi NW 8.1 mph - N/A   Clear
3:55 PM 53.6 °F - 25.0 °F 33% 30.23 in 10.0 mi NNW 9.2 mph - N/A   Clear
4:15 PM 51.1 °F - 25.7 °F 37% 30.23 in 10.0 mi North 5.8 mph - N/A   Clear
4:35 PM 48.2 °F - 27.1 °F 44% 30.24 in 10.0 mi North 8.1 mph - N/A   Clear
4:55 PM 47.3 °F - 27.3 °F 46% 30.25 in 10.0 mi North 6.9 mph - N/A   Clear
5:35 PM 44.1 °F 40.1 °F 27.5 °F 52% 30.26 in 10.0 mi North 6.9 mph - N/A   Clear
5:55 PM 41.4 °F 37.6 °F 26.6 °F 56% 30.26 in 10.0 mi North 5.8 mph - N/A   Clear
6:15 PM 40.1 °F 36.1 °F 26.4 °F 58% 30.27 in 10.0 mi North 5.8 mph - N/A   Clear
6:35 PM 38.3 °F 33.2 °F 26.6 °F 63% 30.27 in 10.0 mi NNE 6.9 mph - N/A   Clear
6:55 PM 37.6 °F 31.0 °F 26.2 °F 64% 30.28 in 10.0 mi North 9.2 mph - N/A   Clear
7:15 PM 37.6 °F 32.3 °F 26.2 °F 64% 30.29 in 10.0 mi NNE 6.9 mph - N/A   Clear
7:55 PM 36.9 °F 30.7 °F 25.2 °F 63% 30.29 in 10.0 mi NNE 8.1 mph - N/A   Clear
8:15 PM 36.5 °F 30.3 °F 24.8 °F 63% 30.29 in 10.0 mi NNE 8.1 mph - N/A   Clear
8:35 PM 37.0 °F 30.4 °F 24.4 °F 60% 30.31 in 10.0 mi NNE 9.2 mph - N/A   Clear
8:55 PM 35.2 °F 28.1 °F 23.9 °F 63% 30.31 in 10.0 mi NNE 9.2 mph - N/A   Clear
9:15 PM 34.5 °F 27.9 °F 23.7 °F 65% 30.32 in 10.0 mi NNE 8.1 mph - N/A   Clear
9:35 PM 34.3 °F 27.7 °F 23.5 °F 65% 30.32 in 10.0 mi NNE 8.1 mph - N/A   Clear
9:55 PM 34.0 °F 27.2 °F 22.8 °F 64% 30.33 in 10.0 mi NNE 8.1 mph - N/A   Clear
10:15 PM 33.3 °F 24.6 °F 22.1 °F 64% 30.33 in 10.0 mi NNE 11.5 mph - N/A   Clear
10:35 PM 32.9 °F 24.1 °F 21.2 °F 62% 30.33 in 10.0 mi NNE 11.5 mph - N/A   Clear
10:55 PM 31.8 °F 23.3 °F 21.0 °F 64% 30.33 in 10.0 mi NNE 10.4 mph - N/A   Clear
11:15 PM 31.3 °F 22.7 °F 20.7 °F 65% 30.35 in 10.0 mi NNE 10.4 mph - N/A   Clear
11:35 PM 30.7 °F 22.6 °F 20.3 °F 65% 30.36 in 10.0 mi NNE 9.2 mph - N/A   Clear
11:55 PM 30.2 °F 21.3 °F 20.1 °F 66% 30.35 in 10.0 mi NNE 10.4 mph - N/A   Clear